CAPE
98 306 522 306 230 380 275 273 361 316 362 266 79 15 1 1 5 2 0 0 3 0
58 217 361 714 508 576 477 195 174 173 324 203 53 5 0 1 1 1 2 0 2 9
18 85 228 354 523 430 350 167 9 0 0 0 0 0 0 1 1 1 3 1 4 3
0 5 65 98 193 378 328 102 0 0 0 0 0 0 1 0 1 4 2 1 6 3
0 1 38 38 66 236 334 86 0 0 0 0 0 0 1 1 2 5 2 1 7 3
0 0 4 27 66 157 282 128 0 1 0 0 0 0 0 1 1 2 0 1 3 5
0 0 0 5 25 108 235 259 13 0 1 0 0 0 1 1 1 1 0 0 1 1
0 0 0 0 23 81 101 129 62 2 1 0 0 0 0 0 0 0 0 0 0 0
1 0 0 2 5 45 50 6 0 19 8 2 0 0 0 0 0 0 0 0 1 0
0 0 0 0 0 38 15 0 0 0 0 1 1 1 2 0 0 0 0 0 1 0
1 2 2 2 1 8 0 0 0 1 1 0 0 1 1 1 0 0 0 0 1 0
2 4 4 2 2 2 0 0 0 0 0 0 0 0 0 0 0 0 0 0 0 0
5 6 3 1 2 3 0 0 0 0 0 0 0 0 0 0 0 0 0 0 0 0
4 5 3 0 0 0 0 0 0 0 0 0 0 0 0 0 0 0 0 0 0 0
CIN
-130 -68 -29 -95 -162 -130 -192 -231 -178 -182 -163 -202 -229 -217 -0 -0 -31 -14 -11 -0 -0 -2
-182 -77 -43 -21 -56 -57 -104 -231 -230 -230 -171 -214 -245 -134 -0 -0 -17 -0 -1 -1 -3 -34
-151 -126 -60 -25 -11 -65 -123 -192 -332 -0 -0 -0 -0 -0 -0 -0 -0 -0 -3 -0 -2 -1
-0 -111 -121 -66 -45 -33 -97 -190 -0 -0 -0 -0 -0 -0 -0 -1 -0 -1 -0 -0 -7 -5
-0 -10 -94 -97 -61 -30 -54 -143 -0 -0 -0 -0 -0 -0 -0 -0 -0 -0 -3 -0 -4 -1
-0 -0 -29 -76 -52 -35 -22 -77 -0 -0 -0 -0 -0 -0 -0 -0 -0 -0 -0 -0 -6 -3
-0 -0 -0 -11 -1 -39 -13 -28 -140 -0 -0 -0 -0 -0 -0 -0 -0 -0 -0 -0 -0 -17
-0 -0 -0 -0 -3 -37 -30 -52 -76 -91 -0 -0 -0 -0 -0 -0 -0 -0 -0 -0 -0 -0
-1 -0 -0 -0 -0 -5 -25 -112 -0 -109 -132 -38 -0 -0 -0 -0 -0 -0 -0 -0 -0 -0
-0 -0 -0 -0 -0 -5 -20 -0 -0 -0 -0 -0 -0 -0 -0 -0 -0 -0 -0 -0 -0 -0
-0 -0 -0 -0 -0 -2 -42 -0 -0 -0 -0 -0 -0 -0 -0 -0 -0 -0 -0 -0 -0 -0
-0 -0 -0 -0 -0 -0 -0 -0 -0 -0 -0 -0 -0 -0 -0 -0 -0 -0 -0 -0 -0 -0
-0 -0 -0 -0 -0 -0 -0 -0 -0 -0 -0 -0 -0 -0 -0 -0 -0 -0 -0 -0 -0 -0
-0 -0 -0 -0 -0 -0 -0 -0 -0 -0 -0 -0 -0 -0 -0 -0 -0 -0 -0 -0 -0 -0
Wind_Speed
5 3 4 5 7 8 8 9 9 11 11 13 13 12 11 10 11 14 14 18 13 11
6 5 6 5 5 7 8 7 9 10 11 11 13 13 13 10 11 11 14 17 19 15
10 8 5 4 6 8 8 9 10 9 9 7 8 9 11 10 10 12 9 8 15 14
11 12 6 5 5 7 9 11 12 10 10 9 9 11 9 10 10 11 12 14 15 16
10 12 10 6 7 6 9 10 11 12 11 11 10 10 10 10 10 11 12 12 10 16
10 11 13 10 7 8 7 11 12 11 12 11 11 10 10 10 10 11 11 13 13 12
10 12 12 14 9 8 10 12 12 12 12 11 11 11 11 11 11 11 8 13 13 16
12 12 14 13 12 9 9 9 12 12 11 11 11 10 12 11 11 11 11 9 14 13
12 13 13 14 16 10 11 9 7 10 10 11 8 9 14 12 10 10 10 9 6 10
13 15 14 16 16 11 12 8 7 7 7 6 4 1 10 12 6 6 5 7 6 3
13 15 15 15 14 15 7 10 8 7 6 7 4 6 11 14 8 8 7 7 5 4
15 16 16 15 15 14 4 8 6 7 7 8 7 10 10 14 10 10 10 9 8 7
14 15 16 15 15 12 5 9 9 10 8 11 9 9 11 11 9 11 9 11 11 14
14 15 15 15 13 3 2 10 12 13 9 10 8 9 14 13 8 10 11 10 9 9
Wind_Direction
281 247 240 218 204 205 197 190 182 190 192 186 191 191 193 200 203 206 206 204 205 192
297 262 259 251 197 208 189 170 171 170 178 177 185 191 193 199 207 210 214 208 195 192
321 290 251 256 239 205 184 181 171 166 169 167 172 185 193 205 214 217 218 209 199 192
329 311 259 249 252 223 185 180 170 186 177 176 185 201 194 207 210 213 215 205 201 192
324 320 291 249 246 253 198 183 181 180 178 177 192 195 198 204 207 211 205 202 202 192
330 325 317 278 251 231 217 187 176 182 185 177 191 195 201 206 204 208 203 201 196 190
327 326 314 303 266 245 225 183 180 179 192 182 187 202 203 203 205 207 206 203 199 201
324 320 317 310 279 246 222 191 180 180 192 189 188 195 199 203 204 202 205 201 207 202
321 323 322 312 306 253 217 200 174 181 188 194 195 192 189 191 201 203 202 199 202 209
332 320 322 318 318 258 215 170 147 133 131 122 120 259 204 199 197 195 202 204 151 95
327 318 315 315 305 300 180 157 141 125 119 113 73 103 117 108 96 83 66 60 60 153
322 313 308 306 303 302 180 147 124 118 116 111 97 104 112 108 97 87 73 67 69 73
315 304 301 298 294 286 240 137 118 103 101 108 109 104 107 109 115 103 95 74 66 83
313 304 296 291 278 210 155 133 117 108 99 98 104 108 110 114 116 121 107 95 82 74